Regional Weather Roundup
Issued by NWS

Home | Current Version | Previous Version | Text Only | Print | Product List | Glossary Off
Versions: 1 2 3 4 5 6 7 8 9 10 11 12 13 14 15 16 17 18 19 20 21 22 23 24 25 26 27 28 29 30 31 32 33 34 35 36 37 38 39 40 41 42 43 44 45 46 47 48 49 50

000
ASUS45 KSLC 061810
RWRUT

UTAH REGIONAL WEATHER ROUNDUP
NATIONAL WEATHER SERVICE SALT LAKE CITY UT
1200 PM MDT MON JUL 06 2015

UTZ001>011-023>025-061900-

NORTHERN UTAH

CITY           SKY/WX    TMP DP  RH WIND       PRES   REMARKS
BRIGHAM CITY   SUNNY     82  52  35 CALM      30.13S
HILL AFB       MOSUNNY   79  57  45 N6        30.16S
LOGAN          SUNNY     79  55  43 CALM      30.14S
OGDEN          MOSUNNY   82  57  42 VRB6      30.13S
PROVO AIRPORT  PTSUNNY   81  57  44 VRB5      30.14F
SALT LAKE CITY PTSUNNY   84  58  40 N7        30.11S
VERNAL         SUNNY     77  54  44 VRB7      30.18F
WENDOVER       CLOUDY    82  46  28 NW9       30.14S
HEBER CITY     MOSUNNY   81  50  34 NW5       30.19F
WEST JORDAN    MOSUNNY   81  54  39 CALM      30.14S

$$

UTZ012>022-026-027-061900-

SOUTHERN/CENTRAL UTAH

CITY           SKY/WX    TMP DP  RH WIND       PRES   REMARKS
BLANDING       CLOUDY    73  57  57 W9        30.29S
BRYCE CANYON   CLOUDY    65  48  54 W7        30.39S
CEDAR CITY     CLOUDY    77  46  33 N3        30.24F
DELTA          CLOUDY    79  47  32 W8        30.16F
HANKSVILLE     CLOUDY    79  59  50 N3        30.15F
MILFORD        CLOUDY    78  49  35 W6        30.20F
MOAB/CYNLANDS  SUNNY     82  54  37 CALM      30.10S
PRICE          MOSUNNY   83  45  26 VRB3      30.20F
ST GEORGE      PTCLDY    88  54  31 W15       30.09F
KANAB          CLOUDY    79  55  44 N5        30.27F

$$

REGIONAL REPORTS     COLORADO/ARIZONA

CITY           SKY/WX    TMP DP  RH WIND       PRES   REMARKS
CRAIG, CO      MOSUNNY   74  55  51 CALM      30.27F
GRAND JUNCTION MOSUNNY   80  57  45 S9        30.15F
RIFLE          PTSUNNY   64  56  75 SE5       30.24S
MONTROSE       MOSUNNY   80  53  39 W12       30.23F
CORTEZ         PTSUNNY   84  50  30 NW9G18    30.19F
PAGE, AZ       CLOUDY    82  52  35 NW7       30.15R
GRAND CANYON   PTSUNNY   71  53  52 VRB6      30.32F
KINGMAN        PTSUNNY   85  53  33 SW14      30.13R
FLAGSTAFF      MOSUNNY   73  47  39 W12       30.35S

$$

REGIONAL REPORTS    NEVADA/IDAHO/WYOMING

CITY           SKY/WX    TMP DP  RH WIND       PRES   REMARKS
LAS VEGAS, NV  PTSUNNY   91  55  29 VRB3      29.98F
ELY            MOSUNNY   81  38  21 CALM      30.26F
ELKO           SUNNY     78  49  35 CALM      30.21F
POCATELLO, ID  CLOUDY    74  56  53 W9        30.18R
BURLEY         PTSUNNY   74  56  53 N7        30.15S
EVANSTON, WY   MOSUNNY   69  54  58 CALM      30.31F
ROCK SPRINGS   PTSUNNY   67  52  58 E5        30.31S
KEMMERER       MOSUNNY   68  52  56 E6        30.34S

$$



USA.gov is the U.S. government's official web portal to all federal, state and local government web resources and services.